Regional Weather Roundup
Issued by NWS

Home | Current Version | Previous Version | Graphics & Text | Print | Product List | Glossary On
Versions: 1 2 3 4 5 6 7 8 9 10 11 12 13 14 15 16 17 18 19 20 21 22 23 24 25 26 27
000
ASUS45 KBOU 251207
RWRCO

WEATHER ROUNDUP FOR COLORADO
NATIONAL WEATHER SERVICE DENVER/BOULDER CO
600 AM MDT SUN JUN 25 2017

NOTE: "FAIR" INDICATES FEW OR NO CLOUDS BELOW 12000 FEET WITH NO
SIGNIFICANT WEATHER AND/OR OBSTRUCTIONS TO VISIBILITY.

COZ001>005-013-030-031-251300-
...NORTHWEST COLORADO...

CITY           SKY/WX    TMP DP  RH WIND       PRES   REMARKS
CRAIG          FAIR      39  33  79 CALM      30.34R
HAYDEN         FAIR      46  30  53 E12       30.34R
MEEKER         FAIR      42  30  62 NE3       30.33R
RABBIT EARS PA FAIR      43  34  70 S3        30.57S
STEAMBOAT SPGS FAIR      39  33  77 CALM      30.37R
WALDEN         FAIR      34  30  86 SE7       30.46S WCI  28
$$

COZ006>008-011-251300-
...WEST CENTRAL VALLEYS...

CITY           SKY/WX    TMP DP  RH WIND       PRES   REMARKS
GRAND JUNCTION FAIR      63  27  25 E8        30.19R
MONTROSE       FAIR      52  32  46 SE6       30.28R
EAGLE          FAIR      43  28  55 E5        30.42R
RIFLE          FAIR      52  28  39 SE3       30.29R
DELTA          FAIR      56  26  31 CALM      30.25R
NUCLA          FAIR      54  27  35 E6        30.28R
$$

COZ017>023-064>068-251300-
...SOUTHWEST COLORADO...

CITY           SKY/WX    TMP DP  RH WIND       PRES   REMARKS
DURANGO        FAIR      50  28  42 N5        30.33R
CORTEZ         FAIR      46  30  53 E6        30.25R
PAGOSA SPRINGS FAIR      49  31  49 CALM      30.41R
TELLURIDE      FAIR      50  23  34 SE7       30.49R
WOLF CREEK PAS FAIR      45  32  61 SW7       30.72S
$$

COZ009-010-012-014-032>034-037-058>063-251300-
...CENTRAL COLORADO...

CITY           SKY/WX    TMP DP  RH WIND       PRES   REMARKS
ASPEN          FAIR      42  30  62 CALM      30.41R
BUENA VISTA    FAIR      48  41  78 CALM      30.48R
COPPER MTN     FAIR      45  32  61 SW3       30.67S
BERTHOUD PASS  FAIR      36  25  64 W14       30.69R
COTTONWOOD PAS FAIR      50  41  71 W3        30.57S
GUNNISON       FAIR      41  32  70 SE5       30.45R
KREMMLING      NOT AVBL
LEADVILLE      CLOUDY    42  37  82 VRB3      30.56R
MONARCH PASS   FAIR      41  39  93 S7        30.78R
SALIDA         FAIR      52  44  74 W7        30.53R
SUNLIGHT       FAIR      45  19  36 E7        30.62R
WILKERSON PASS FAIR      41  37  87 W6        30.67S
$$

COZ069>075-251300-
...SAN LUIS VALLEY/SANGRE DE CRISTO MOUNTAINS...

CITY           SKY/WX    TMP DP  RH WIND       PRES   REMARKS
ALAMOSA        MOCLDY    49  44  83 SW5       30.42R
DEL NORTE      FAIR      49  34  56 W13       30.45R
LA VETA PASS   CLOUDY    45  43  93 NW5       30.69R
SAGUACHE       FAIR      46  34  61 NW7       30.45R
$$

COZ035-036-038>040-251300-
...NORTHERN COLORADO FRONT RANGE...

CITY           SKY/WX    TMP DP  RH WIND       PRES   REMARKS
DENVER INTL AP FAIR      50  47  89 N6        30.34R
DMNS CITY PARK   N/A     55  49  80 NE8       30.34S
AURORA         PTCLDY    53  48  82 SW3       30.35R
FRONT RANGE AP FAIR      50  46  87 W10       30.35S
ERIE MUNI ARPT FAIR      49  47  93 N3        30.35R
BOULDER MUN AP FAIR      54  50  87 N5        30.35R
CENTENNIAL     FAIR      50  46  86 CALM      30.35R
BROOMFIELD     FAIR      54  50  87 N9        30.36S
FORT COLLINS   FAIR      51  48  89 N6        30.36R
LONGMONT       FAIR      55  50  83 CALM      30.37R
$$

COZ041-046-047-076>085-087-088-251300-
...PIKES PEAK/PALMER DIVIDE AND SOUTHERN FOOTHILLS...

CITY           SKY/WX    TMP DP  RH WIND       PRES   REMARKS
COLO. SPRINGS  FAIR      51  47  86 NE5       30.38S
A. F. ACADEMY  FAIR      46  43  91 N6        30.39R
SCHRIEVER AFB  FAIR      52  48  86 N8        30.39R
CHEYENNE MTN   FAIR      55  46  72 CALM      30.35S
ELLICOTT       FAIR     N/A N/A N/A S5        30.37R
FALCON           N/A     52  49  90 CALM      30.42S
FORT CARSON    FAIR      50  45  83 CALM      30.36R
LIMON          MOCLDY    49  47  93 CALM      30.35S
MONUMENT HILL  FAIR      46  45  93 S8        30.42S
CANON CITY     CLEAR     55  52  88 CALM      30.33S
WALSENBURG     PTSUNNY   55  48  76 S3        30.36R
TRINIDAD       CLOUDY    61  51  70 CALM      30.35R
$$

COZ042>045-048>051-090-091-251300-
...NORTHEAST COLORADO...

CITY           SKY/WX    TMP DP  RH WIND       PRES   REMARKS
GREELEY ARPT   FAIR      54  48  80 N7        30.35R
AKRON          CLOUDY    55  51  86 NE12      30.35S
BURLINGTON     FAIR      53  50  89 SE10      30.31S
WRAY           CLOUDY    55  48  76 NE8       30.34R
YUMA           LGT RAIN  52  50  93 NE6       30.32F
STERLING       MOCLDY    54  50  87 NE8       30.33R
HOLYOKE        NOT AVBL
FORT MORGAN    FAIR      51  49  92 NE7       30.33S
$$

COZ086-089-092>099-251300-
...SOUTHEAST COLORADO...

CITY           SKY/WX    TMP DP  RH WIND       PRES   REMARKS
PUEBLO         CLOUDY    60  53  77 NE8       30.30S
LA JUNTA       FAIR      59  54  83 E7        30.28R
LAMAR          CLOUDY    63  55  75 E5        30.28R
SPRINGFIELD      N/A     60  57  89 S9        30.31R
$$




USA.gov is the U.S. government's official web portal to all federal, state and local government web resources and services.